Home   Weather   Alamogordo   Past weeks
Flag for USA

Past Weather in Alamogordo, New Mexico, USA — Yesterday and Last 2 Weeks

Now
45 °F

Sunny.


Feels Like: 42 °F
Forecast: 75 / 44 °F
Wind: 5 mph from Northeast

Location: Alamogordo-White

Current Time: Oct 17, 2019 at 8:30:59 am

Latest Report: Oct 17, 2019 at 7:55 am


Visibility: 10 mi

Pressure: 30.10 "Hg (25.62 "Hg at 1322m altitude)

Humidity: 61%

Dew Point: 32 °F

Location of AlamogordoLocation

Past Weather in Alamogordo — Graph

°F

Alamogordo Temperature Yesterday

Maximum temperature yesterday: 73 °F (at 2:55 pm)
Minimum temperature yesterday: 45 °F (at 5:35 am)
Average temperature yesterday: 60 °F

High & Low Weather Summary for the Past Weeks

 TemperatureHumidityPressure
High82 °F (Oct 2, 2:35 pm)100% (Oct 3, 9:35 pm)30.37 "Hg (Oct 3, 9:35 pm)
Low39 °F (Oct 12, 2:35 am)14% (Oct 10, 4:15 pm)29.85 "Hg (Oct 9, 4:35 pm)
Average64 °F56%30.11 "Hg
* Reported Oct 2 7:15 am — Oct 17 7:15 am, Alamogordo. Weather by CustomWeather, © 2019

Note: Actual official high and low records may vary slightly from our data, if they occured in-between our weather recording intervals... More about our weather records

Advertising

Alamogordo Weather History for the Previous 24 Hours

Scroll right to see more
 ConditionsComfort  
Time TempWeatherWind HumidityBarometerVisibility
7:15 am
Thu, Oct 17
45 °FSunny.6 mph61%30.10 "Hg10 mi
6:55 am46 °FClear.7 mph57%30.10 "Hg10 mi
6:35 am45 °FClear.6 mph61%30.10 "Hg10 mi
6:15 am45 °FClear.9 mph61%30.10 "Hg10 mi
5:55 am43 °FClear.7 mph66%30.11 "Hg10 mi
5:35 am43 °FClear.3 mph66%30.11 "Hg10 mi
5:15 am45 °FClear.5 mph61%30.11 "Hg10 mi
4:55 am46 °FClear.3 mph57%30.11 "Hg10 mi
4:35 am46 °FClear.No wind57%30.10 "Hg10 mi
4:15 am48 °FClear.3 mph54%30.10 "Hg10 mi
3:55 am48 °FClear.6 mph54%30.11 "Hg10 mi
3:35 am50 °FClear.8 mph50%30.11 "Hg10 mi
3:15 am48 °FClear.6 mph54%30.12 "Hg10 mi
2:55 am48 °FClear.6 mph54%30.14 "Hg10 mi
2:15 am52 °FClear.No wind47%30.13 "Hg10 mi
1:55 am52 °FClear.No wind47%30.12 "Hg10 mi
1:35 am52 °FClear.5 mph47%30.12 "Hg10 mi
1:15 am54 °FClear.3 mph44%30.11 "Hg10 mi
12:35 am55 °FClear.No wind41%30.12 "Hg10 mi
12:15 am55 °FClear.3 mph41%30.12 "Hg10 mi
11:55 pm
Wed, Oct 16
55 °FClear.No wind41%30.14 "Hg10 mi
11:35 pm48 °FClear.3 mph54%30.14 "Hg10 mi
11:15 pm55 °FClear.No wind41%30.16 "Hg10 mi
10:55 pm55 °FClear.3 mph41%30.16 "Hg10 mi
10:35 pm54 °FClear.3 mph44%30.16 "Hg10 mi
10:15 pm54 °FClear.No wind44%30.16 "Hg10 mi
9:55 pm54 °FClear.No wind47%30.15 "Hg10 mi
9:35 pm55 °FClear.8 mph41%30.15 "Hg10 mi
9:15 pm55 °FClear.7 mph47%30.15 "Hg10 mi
8:55 pm57 °FClear.7 mph41%30.15 "Hg10 mi
8:35 pm59 °FClear.No wind36%30.15 "Hg10 mi
7:55 pm55 °FClear.7 mph47%30.16 "Hg10 mi
7:35 pm61 °FClear.9 mph39%30.15 "Hg10 mi
7:15 pm63 °FClear.6 mph37%30.16 "Hg10 mi
6:55 pm66 °FClear.No wind28%30.16 "Hg10 mi
6:35 pm68 °FClear.3 mph28%30.15 "Hg10 mi
6:15 pm70 °FSunny.3 mph27%30.16 "Hg10 mi
5:55 pm72 °FSunny.3 mph29%30.16 "Hg10 mi
5:35 pm72 °FSunny.No wind27%30.16 "Hg10 mi
5:15 pm73 °FSunny.No wind25%30.17 "Hg10 mi
4:55 pm73 °FSunny.No wind22%30.17 "Hg10 mi
4:35 pm73 °FSunny.3 mph22%30.18 "Hg10 mi
4:15 pm73 °FSunny.5 mph23%30.18 "Hg10 mi
3:55 pm73 °FSunny.No wind23%30.19 "Hg10 mi
3:35 pm73 °FSunny.No wind22%30.19 "Hg10 mi
3:15 pm73 °FSunny.No wind22%30.20 "Hg10 mi
2:55 pm73 °FSunny.3 mph23%30.20 "Hg10 mi
2:35 pm72 °FSunny.3 mph25%30.21 "Hg10 mi
2:15 pm72 °FSunny.5 mph25%30.23 "Hg10 mi
1:55 pm72 °FSunny.5 mph27%30.24 "Hg10 mi
1:35 pm72 °FSunny.5 mph23%30.24 "Hg10 mi
1:15 pm70 °FSunny.6 mph27%30.26 "Hg10 mi
12:55 pm68 °FSunny.5 mph26%30.26 "Hg10 mi
12:35 pm68 °FSunny.6 mph26%30.27 "Hg10 mi
12:15 pm66 °FSunny.7 mph30%30.28 "Hg10 mi
11:55 am66 °FSunny.5 mph32%30.29 "Hg10 mi
11:35 am64 °FSunny.6 mph32%30.29 "Hg10 mi
11:15 am64 °FSunny.8 mph32%30.30 "Hg10 mi
10:55 am64 °FSunny.7 mph32%30.30 "Hg10 mi
10:35 am63 °FSunny.8 mph32%30.31 "Hg10 mi
10:15 am63 °FSunny.7 mph32%30.31 "Hg10 mi
9:55 am61 °FSunny.7 mph36%30.31 "Hg10 mi
9:35 am59 °FSunny.5 mph36%30.31 "Hg10 mi
9:15 am59 °FSunny.7 mph36%30.31 "Hg10 mi
8:35 am57 °FSunny.6 mph41%30.30 "Hg10 mi
8:15 am54 °FSunny.3 mph51%30.29 "Hg10 mi
Weather by CustomWeather, © 2019

See weather overview